Trinidad, Colorado, United States (81082)
Lat: 37.17N, Lon: 104.5W
Wx Zone: COZ088
Local Info
Past Weather Observations for Saturday, July 25, 2015

NOTE: This archive is for the closest National Weather Service station to Trinidad. Information may differ from the station used for current weather conditions.

Click here for Long-term Archive

Time Weather Temperature Dewpoint Humidity Pressure Winds Precip Visibility
23:54
Clear
70°F / 21°C 54°F / 12°C 57% 30.12 in
(1020 mb)
SSW 12.7 mph
(SSW 20 kph)
- 10SM
22:54
Clear
72°F / 22°C 54°F / 12°C 53% 30.12 in
(1020 mb)
SSW 11.5 mph
(SSW 19 kph)
- 10SM
21:54
Clear
70°F / 21°C 55°F / 13°C 60% 30.12 in
(1020 mb)
SSW 4.6 mph
(SSW 7 kph)
- 10SM
20:54
Clear
70°F / 21°C 55°F / 13°C 60% 30.12 in
(1020 mb)
NW 6.9 mph
(NW 11 kph)
- 10SM
19:54
Clear
72°F / 22°C 54°F / 12°C 53% 30.12 in
(1020 mb)
WNW 5.8 mph
(WNW 9 kph)
- 10SM
18:54
Partly Cloudy
81°F / 27°C 50°F / 10°C 34% 30.09 in
(1019 mb)
S 6.9 mph
(S 11 kph)
- 10SM
18:52
Partly Cloudy
81°F / 27°C 50°F / 10°C 34% 30.09 in
(1019 mb)
S 6.9 mph
(S 11 kph)
- 10SM
18:35
Partly Cloudy
Thunder Storms
82°F / 28°C 46°F / 8°C 28% 30.09 in
(1019 mb)
S 8.1 mph
(S 13 kph)
- 10SM
17:54
Partly Cloudy
84°F / 29°C 46°F / 8°C 27% 30.09 in
(1019 mb)
N 3.5 mph
(N 6 kph)
0.00 in
(0.00 mm)
10SM
16:54
Partly Cloudy
88°F / 31°C 46°F / 8°C 24% 30.09 in
(1019 mb)
Calm 0.00 in
(0.00 mm)
10SM
16:03
Mostly Cloudy
88°F / 31°C 50°F / 10°C 27% 30.09 in
(1019 mb)
ENE 4.6 mph
(ENE 7 kph)
- 10SM
15:54
Mostly Cloudy
Thunder Storms
88°F / 31°C 50°F / 10°C 27% 30.09 in
(1019 mb)
E 4.6 mph
(E 7 kph)
- 10SM
15:45
Mostly Cloudy
Thunder Storms
88°F / 31°C 46°F / 8°C 24% 30.09 in
(1019 mb)
NE 4.6 mph
(NE 7 kph)
- 10SM
15:05
Partly Cloudy
90°F / 32°C 50°F / 10°C 26% 30.12 in
(1020 mb)
N 13.8 mph
(N 22 kph)
- 10SM
14:54
Mostly Cloudy
Thunder Storms
91°F / 33°C 50°F / 10°C 24% 30.12 in
(1020 mb)
N 12.7 mph
(N 20 kph)
- 10SM
14:27
Partly Cloudy
Thunder Storms
91°F / 33°C 48°F / 9°C 23% 30.12 in
(1020 mb)
NE 8.1 mph
(NE 13 kph)
- 10SM
13:54
Mostly Cloudy
88°F / 31°C 50°F / 10°C 27% 30.12 in
(1020 mb)
NW 13.8 mph
(NW 22 kph)
- 10SM
13:42
Mostly Cloudy
88°F / 31°C 50°F / 10°C 27% 30.12 in
(1020 mb)
Calm - 10SM
13:27
Partly Cloudy
Thunder Storms
90°F / 32°C 46°F / 8°C 22% 30.12 in
(1020 mb)
Variable 3.5 mph
(Variable 6 kph)
- 10SM
12:54
Clear
93°F / 34°C 48°F / 9°C 21% 30.12 in
(1020 mb)
Calm - 10SM
11:54
Clear
91°F / 33°C 48°F / 9°C 23% 30.15 in
(1021 mb)
NW 9.2 mph
(NW 15 kph)
- 10SM
10:54
Clear
90°F / 32°C 50°F / 10°C 26% 30.15 in
(1021 mb)
Variable 5.8 mph
(Variable 9 kph)
- 10SM
09:54
Clear
84°F / 29°C 50°F / 10°C 31% 30.18 in
(1022 mb)
Calm - 10SM
08:54
Clear
81°F / 27°C 52°F / 11°C 37% 30.18 in
(1022 mb)
WNW 4.6 mph
(WNW 7 kph)
- 10SM
07:54
Clear
77°F / 25°C 52°F / 11°C 42% 30.18 in
(1022 mb)
W 4.6 mph
(W 7 kph)
- 10SM
06:54
Clear
72°F / 22°C 52°F / 11°C 50% 30.18 in
(1022 mb)
SSW 9.2 mph
(SSW 15 kph)
- 10SM
05:54
Clear
68°F / 20°C 52°F / 11°C 56% 30.18 in
(1022 mb)
W 11.5 mph
(W 19 kph)
- 10SM
04:54
Clear
64°F / 18°C 52°F / 11°C 64% 30.15 in
(1021 mb)
SSW 10.4 mph
(SSW 17 kph)
- 10SM
03:54
Clear
63°F / 17°C 52°F / 11°C 68% 30.18 in
(1022 mb)
W 10.4 mph
(W 17 kph)
- 10SM
02:54
Clear
64°F / 18°C 52°F / 11°C 64% 30.18 in
(1022 mb)
SSW 12.7 mph
(SSW 20 kph)
- 10SM
01:54
Clear
64°F / 18°C 54°F / 12°C 68% 30.18 in
(1022 mb)
SSW 11.5 mph
(SSW 19 kph)
- 10SM
00:54
Clear
64°F / 18°C 54°F / 12°C 68% 30.21 in
(1023 mb)
SSW 8.1 mph
(SSW 13 kph)
- 10SM
Time Weather Temperature Dewpoint Humidity Pressure Winds Precip Visibility


Weather for websites

WeatherForYou.com, LLC is not responsible for any damages or problems caused by this service. Current weather conditions are obtained from the closest station including government and personal stations which may have varying degrees of accuracy. Weather forecasts are derived from the NOAA NDFD. Like all things, this site belongs to Jesus Christ... He just trusts us to maintain it. If you have any questions or comments email webmaster@weatherforyou.com

Copyright © 2015, WeatherForYou.com LLC. All rights reserved.